Prague, Czech Republic

11:37 AM CET on January 16, 2018 (GMT +0100)
Ruzyne

Weather History for LKPR - April, 2013

Change the Weather History Date:

Saturday, April 13, 2013

  Actual Average Record
Temperature  
Mean Temperature 48 °F -  
Max Temperature 57 °F 60 °F 71 °F (2007)
Min Temperature 39 °F 40 °F 23 °F (1997)
Degree Days  
Heating Degree Days 17    
Moisture  
Dew Point 39 °F    
Average Humidity 67    
Maximum Humidity 81    
Minimum Humidity 47    
Precipitation  
Precipitation 0.00 in 0.07 in - ()
Sea Level Pressure  
Sea Level Pressure 30.01 in    
Wind  
Wind Speed 14 mph ()    
Max Wind Speed 26 mph    
Max Gust Speed 34 mph    
Visibility 6.2 miles    
Events Rain    
Averages and records for this station are not official NWS values.
T = Trace of Precipitation, MM = Missing Value Source: Averaged Metar Reports

Daily Weather History Graph

Daily Weather History Graph

Search for Another Location

Airport or City:

Trip Planner

Search our weather history database for the weather conditions in past years. The results will help you decide how hot, cold, wet, or windy it might be!

Date:

Astronomy

Apr. 13, 2013 Rise Set
Actual Time 6:13 AM CEST 7:53 PM CEST
Civil Twilight 5:39 AM CEST 8:27 PM CEST
Nautical Twilight 4:58 AM CEST 9:09 PM CEST
Astronomical Twilight 4:12 AM CEST 9:56 PM CEST
Moon 7:37 AM CEST (4/13) 11:19 PM CEST (4/13)
Length of Visible Light 14h 47m
Length of Day
13h 39m
Waxing Crescent, 9% of the Moon is Illuminated
Apr 13
Waxing Crescent
Apr 18
First Quarter
Apr 25
Full
May 2
Last Quarter
May 10
New

Hourly Weather History & Observations

Time (CEST) Temp. Windchill Dew Point Humidity Pressure Visibility Wind Dir Wind Speed Gust Speed Precip Events Conditions
12:00 AM 42.8 °F 41.1 °F 35.6 °F 76% 29.80 in - South 3.5 mph - N/A   Clear
12:30 AM 42.8 °F 38.6 °F 35.6 °F 76% 29.80 in - South 6.9 mph - N/A   Clear
1:00 AM 42.8 °F 37.5 °F 37.4 °F 81% 29.80 in - South 9.2 mph - N/A   Clear
1:30 AM 44.6 °F 38.8 °F 39.2 °F 81% 29.83 in - South 11.5 mph - N/A   Clear
2:00 AM 44 °F - 39 °F 75% 29.86 in 31 mi SW 13.4 mph - -   Mostly Cloudy
2:00 AM 44.6 °F 37.4 °F 39.2 °F 81% 29.83 in - SSW 16.1 mph - N/A   Clear
2:30 AM 44.6 °F 38.4 °F 39.2 °F 81% 29.83 in - SW 12.7 mph - N/A   Clear
3:00 AM 44.6 °F 38.8 °F 39.2 °F 81% 29.86 in - SW 11.5 mph - N/A   Clear
3:30 AM 46.4 °F 40.1 °F 39.2 °F 76% 29.86 in - SW 15.0 mph - N/A   Clear
4:00 AM 46.4 °F 39.8 °F 39.2 °F 76% 29.86 in - SW 16.1 mph - N/A   Clear
4:30 AM 46.4 °F 39.0 °F 39.2 °F 76% 29.86 in - WSW 19.6 mph - N/A   Clear
5:00 AM 46.4 °F 39.8 °F 37.4 °F 71% 29.89 in - SW 16.1 mph - N/A   Clear
5:30 AM 44.6 °F 36.4 °F 37.4 °F 76% 29.89 in - SW 20.7 mph - N/A   Clear
6:00 AM 44.6 °F 37.4 °F 37.4 °F 76% 29.89 in - SW 16.1 mph - N/A   Clear
6:30 AM 44.6 °F 37.8 °F 37.4 °F 76% 29.89 in - SW 15.0 mph - N/A   Clear
7:00 AM 44.6 °F 36.9 °F 37.4 °F 76% 29.92 in - SW 18.4 mph - N/A   Clear
7:30 AM 44.6 °F 37.2 °F 39.2 °F 81% 29.92 in - SW 17.3 mph - N/A   Clear
8:00 AM 46 °F - 39 °F 68% 29.96 in 37 mi WSW 20.1 mph - -   Mostly Cloudy
8:00 AM 46.4 °F 39.0 °F 39.2 °F 76% 29.92 in - SW 19.6 mph - N/A   Clear
8:30 AM 48.2 °F - 39.2 °F 71% 29.95 in - WSW 20.7 mph - N/A   Clear
9:00 AM 50.0 °F - 41.0 °F 71% 29.95 in 6.2 mi SW 23.0 mph - N/A   Partly Cloudy
9:30 AM 50.0 °F - 39.2 °F 66% 29.95 in 6.2 mi WSW 23.0 mph - N/A   Scattered Clouds
10:00 AM 48.2 °F - 39.2 °F 71% 29.98 in 6.2 mi WSW 21.9 mph 33.4 mph N/A   Scattered Clouds
10:30 AM 51.8 °F - 39.2 °F 62% 29.98 in 6.2 mi WSW 26.5 mph - N/A   Partly Cloudy
11:00 AM 53.6 °F - 39.2 °F 58% 29.98 in 6.2 mi WSW 23.0 mph 34.5 mph N/A   Scattered Clouds
11:30 AM 51.8 °F - 39.2 °F 62% 30.01 in 6.2 mi WSW 20.7 mph 32.2 mph N/A   Mostly Cloudy
12:00 PM 51.8 °F - 39.2 °F 62% 30.04 in 6.2 mi WSW 25.3 mph - N/A   Mostly Cloudy
12:22 PM 50.0 °F - 37.4 °F 62% 30.04 in 6.2 mi WSW 23.0 mph 34.5 mph N/A   Mostly Cloudy
12:30 PM 50.0 °F - 37.4 °F 62% 30.04 in 6.2 mi WSW 23.0 mph 34.5 mph N/A   Mostly Cloudy
1:00 PM 51.8 °F - 41.0 °F 67% 30.04 in 6.2 mi WSW 20.7 mph - N/A   Scattered Clouds
1:30 PM 53.6 °F - 42.8 °F 67% 30.06 in 6.2 mi WSW 20.7 mph - N/A   Scattered Clouds
2:00 PM 55 °F - 41 °F 47% 30.07 in 37 mi WSW 20.1 mph - -   Partly Cloudy
2:00 PM 55.4 °F - 39.2 °F 54% 30.06 in 6.2 mi WSW 21.9 mph - N/A   Mostly Cloudy
2:30 PM 57.2 °F - 41.0 °F 55% 30.06 in 6.2 mi WSW 20.7 mph - N/A   Scattered Clouds
3:00 PM 53.6 °F - 37.4 °F 54% 30.06 in 6.2 mi WSW 23.0 mph - N/A   Scattered Clouds
3:06 PM 51.8 °F - 39.2 °F 62% 30.06 in 6.2 mi West 20.7 mph 32.2 mph N/A Rain Light Rain Showers
3:21 PM 55.4 °F - 41.0 °F 58% 30.06 in 6.2 mi WSW 18.4 mph - N/A   Partly Cloudy
3:30 PM 55.4 °F - 41.0 °F 58% 30.06 in - WSW 17.3 mph - N/A   Clear
4:00 PM 53.6 °F - 37.4 °F 54% 30.06 in 6.2 mi West 17.3 mph - N/A   Partly Cloudy
4:30 PM 53.6 °F - 37.4 °F 54% 30.09 in 6.2 mi WNW 13.8 mph - N/A   Partly Cloudy
5:00 PM 57.2 °F - 37.4 °F 48% 30.09 in 6.2 mi West 13.8 mph - N/A   Partly Cloudy
5:30 PM 55.4 °F - 35.6 °F 47% 30.09 in 6.2 mi West 15.0 mph - N/A   Partly Cloudy
6:00 PM 55.4 °F - 35.6 °F 47% 30.09 in 6.2 mi West 17.3 mph - N/A   Scattered Clouds
6:30 PM 53.6 °F - 37.4 °F 54% 30.09 in - WSW 12.7 mph - N/A   Clear
7:00 PM 53.6 °F - 37.4 °F 54% 30.12 in - SW 17.3 mph - N/A   Clear
7:30 PM 51.8 °F - 37.4 °F 58% 30.12 in - SW 13.8 mph - N/A   Clear
8:00 PM 50 °F - 38 °F 52% 30.17 in 44 mi WSW 13.4 mph - -   Partly Cloudy
8:00 PM 50.0 °F - 37.4 °F 62% 30.15 in - SW 13.8 mph - N/A   Clear
8:30 PM 50.0 °F - 37.4 °F 62% 30.15 in 6.2 mi SW 12.7 mph - N/A   Partly Cloudy
8:38 PM 50.0 °F - 39.2 °F 66% 30.15 in 6.2 mi WSW 13.8 mph - N/A Rain Light Rain Showers
9:00 PM 50.0 °F - 39.2 °F 66% 30.18 in 6.2 mi West 13.8 mph - N/A Rain Light Rain Showers
9:30 PM 48.2 °F - 39.2 °F 71% 30.18 in - West 5.8 mph - N/A   Clear
10:00 PM 44.6 °F 43.1 °F 39.2 °F 81% 30.21 in - NW 3.5 mph - N/A   Clear
10:30 PM 46.4 °F 45.2 °F 39.2 °F 76% 30.21 in - NW 3.5 mph - N/A   Clear
11:00 PM 42.8 °F 41.1 °F 37.4 °F 81% 30.21 in - WNW 3.5 mph - N/A   Clear
11:30 PM 41.0 °F 38.0 °F 35.6 °F 81% 30.24 in - SW 4.6 mph - N/A   Clear